Iron Mountain, MI

11:04 AM CST on November 23, 2017 (GMT -0600)
Ford

Weather History for KIMT - March, 2014

Change the Weather History Date:

Thursday, March 20, 2014

  Actual Average Record
Temperature  
Mean Temperature 27 °F -  
Max Temperature 35 °F 40 °F 80 °F (2012)
Min Temperature 17 °F 19 °F -8 °F (1965)
Degree Days  
Heating Degree Days 38    
Moisture  
Dew Point 19 °F    
Average Humidity 68    
Maximum Humidity 84    
Minimum Humidity 48    
Precipitation  
Precipitation 0.00 in - - ()
Sea Level Pressure  
Sea Level Pressure 29.94 in    
Wind  
Wind Speed 10 mph (NW)    
Max Wind Speed 16 mph    
Max Gust Speed 24 mph    
Visibility 10 miles    
Events Snow    
Averages and records for this station are not official NWS values.
T = Trace of Precipitation, MM = Missing Value Source: NWS Daily Summary

Daily Weather History Graph

Daily Weather History Graph

Search for Another Location

Airport or City:

Trip Planner

Search our weather history database for the weather conditions in past years. The results will help you decide how hot, cold, wet, or windy it might be!

Date:

Astronomy

Mar. 20, 2014 Rise Set
Actual Time 6:55 AM CDT 7:05 PM CDT
Civil Twilight 6:25 AM CDT 7:34 PM CDT
Nautical Twilight 5:50 AM CDT 8:09 PM CDT
Astronomical Twilight 5:15 AM CDT 8:45 PM CDT
Moon 11:38 PM CDT (3/20) 8:49 AM CDT (3/20)
Length of Visible Light 13h 09m
Length of Day
12h 09m
Waning Gibbous, 84% of the Moon is Illuminated
Mar 20
Waning Gibbous
Mar 23
Last Quarter
Mar 30
New
Apr 7
First Quarter
Apr 15
Full

Hourly Weather History & Observations

Time (CDT) Temp. Windchill Dew Point Humidity Pressure Visibility Wind Dir Wind Speed Gust Speed Precip Events Conditions
12:54 AM 28.9 °F 17.7 °F 21.9 °F 75% 29.84 in 10.0 mi NW 15.0 mph - N/A   Overcast
1:54 AM 28.9 °F 17.3 °F 21.9 °F 75% 29.85 in 10.0 mi NW 16.1 mph 24.2 mph N/A   Overcast
2:06 AM 28.4 °F 17.0 °F 21.2 °F 74% 29.81 in 10.0 mi NW 15.0 mph 24.2 mph N/A   Overcast
2:54 AM 28.0 °F 20.0 °F 21.0 °F 75% 29.86 in 10.0 mi NW 8.1 mph - N/A   Overcast
3:29 AM 28.4 °F 19.7 °F 21.2 °F 74% 29.82 in 10.0 mi NW 9.2 mph - N/A   Overcast
3:54 AM 28.9 °F 20.4 °F 21.9 °F 75% 29.86 in 10.0 mi NW 9.2 mph - N/A   Overcast
4:03 AM 28.4 °F 19.7 °F 21.2 °F 74% 29.82 in 10.0 mi NW 9.2 mph - N/A   Overcast
4:54 AM 28.0 °F 19.3 °F 21.0 °F 75% 29.88 in 10.0 mi NW 9.2 mph - 0.00 in   Overcast
5:54 AM 28.0 °F 18.1 °F 21.0 °F 75% 29.91 in 10.0 mi NW 11.5 mph - 0.00 in   Overcast
6:54 AM 28.0 °F 18.6 °F 21.0 °F 75% 29.93 in 10.0 mi NW 10.4 mph - N/A   Overcast
7:54 AM 28.0 °F 18.6 °F 19.9 °F 72% 29.94 in 10.0 mi WNW 10.4 mph - N/A   Overcast
8:54 AM 28.0 °F 17.0 °F 21.0 °F 75% 29.95 in 3.0 mi NW 13.8 mph - 0.00 in Snow Light Snow
9:27 AM 28.4 °F 20.4 °F 21.2 °F 74% 29.91 in 7.0 mi NW 8.1 mph - 0.00 in   Overcast
9:54 AM 28.9 °F 19.2 °F 21.0 °F 72% 29.97 in 10.0 mi NNW 11.5 mph - 0.00 in   Overcast
10:54 AM 30.9 °F 21.7 °F 19.9 °F 64% 29.98 in 10.0 mi WNW 11.5 mph 18.4 mph 0.00 in   Mostly Cloudy
11:54 AM 30.9 °F 22.8 °F 17.1 °F 57% 29.98 in 10.0 mi NW 9.2 mph 19.6 mph 0.00 in   Overcast
12:54 PM 32.0 °F 24.2 °F 17.1 °F 54% 29.98 in 10.0 mi NNW 9.2 mph 17.3 mph N/A   Overcast
1:54 PM 32.0 °F 24.2 °F 18.0 °F 56% 29.97 in 10.0 mi NW 9.2 mph - N/A   Overcast
2:54 PM 33.1 °F 24.9 °F 17.1 °F 52% 29.97 in 10.0 mi NW 10.4 mph - N/A   Overcast
3:54 PM 33.1 °F 25.5 °F 18.0 °F 54% 29.97 in 10.0 mi NNW 9.2 mph - N/A   Overcast
4:54 PM 35.1 °F 30.1 °F 17.1 °F 48% 29.97 in 10.0 mi North 5.8 mph - N/A   Overcast
5:54 PM 33.1 °F 27.7 °F 18.0 °F 54% 29.99 in 10.0 mi NW 5.8 mph - N/A   Overcast
6:54 PM 33.1 °F 30.0 °F 18.0 °F 54% 29.99 in 10.0 mi West 3.5 mph - N/A   Overcast
7:54 PM 28.0 °F - 17.1 °F 63% 30.00 in 10.0 mi Calm Calm - N/A   Clear
8:54 PM 24.1 °F - 17.1 °F 75% 30.01 in 10.0 mi Calm Calm - N/A   Clear
9:54 PM 21.0 °F - 15.1 °F 78% 30.01 in 10.0 mi Calm Calm - N/A   Clear
10:54 PM 19.9 °F - 15.1 °F 81% 30.02 in 10.0 mi Calm Calm - N/A   Clear
11:54 PM 17.1 °F - 12.9 °F 84% 30.03 in 10.0 mi Calm Calm - N/A   Clear